DW4070 Stamford CT US current weather conditions

sailwx.info

Wind from 182

Air temperature 21.7° C
Dewpoint 20.7° C

Last reported at 2019-Jun-16 23:01 UTC.
Time now 2019-Jun-17 17:31 UTC

Location: N 41°08' W 073°33'.
View on Google Maps.

See reports from other nearby stations

  
Tides and Currents Weather Stations Pressure Air Temp Water Temp Dewpoint Dewpoint Depression Visibility Wind Speed Wind Dir Waves Ship Positions
date/time (UTC)wind fromknots sea level pressurealtimeterstation pressurevisibilityair tempwater tempwave heightnotes
2019-Jun-16 23:01 182 21.7
2019-Jun-16 22:45 181 21.7
2019-Jun-16 22:30 181 21.7
2019-Jun-16 22:15 181 21.7
2019-Jun-16 22:00 180 21.7
2019-Jun-16 21:45 181 22.2
2019-Jun-16 21:30 179 21.7
2019-Jun-16 21:15 179 22.2
2019-Jun-16 21:00 174 22.2
2019-Jun-16 20:45 174 22.2
2019-Jun-16 20:30 175 22.8
2019-Jun-16 20:15 125 22.8
2019-Jun-16 20:00 122 22.8
2019-Jun-16 19:45 214 23.3
2019-Jun-16 19:30 158 22.8
2019-Jun-16 19:15 146 22.2
2019-Jun-16 19:00 132 21.7
2019-Jun-16 18:45 127 21.1
2019-Jun-16 18:18 127 21.1
2019-Jun-16 18:02 127 21.7
2019-Jun-16 17:47 128 22.2
2019-Jun-16 17:31 124 22.2
2019-Jun-16 17:16 101 22.8
2019-Jun-16 17:01 142 23.3
2019-Jun-16 16:46 142 23.9
2019-Jun-16 16:31 275 24.4
2019-Jun-16 16:16 152 1 gusting 6 24.4
2019-Jun-16 16:01 200 23.9
2019-Jun-16 15:46 242 0 gusting 4 23.3
2019-Jun-16 15:31 168 22.8
2019-Jun-16 15:16 188 22.8
2019-Jun-16 14:45 200 0 gusting 4 21.1
2019-Jun-16 14:30 167 20.6
2019-Jun-16 14:15 110 20.0
2019-Jun-16 14:00 187 19.4
2019-Jun-16 13:45 115 18.9
2019-Jun-16 13:30 194 18.9
2019-Jun-16 13:15 272 18.3
2019-Jun-16 13:01 271 18.3
2019-Jun-16 12:46 270 18.3
2019-Jun-16 12:31 278 17.8
2019-Jun-16 12:18 278 17.8
2019-Jun-16 12:01 278 17.8
2019-Jun-16 11:46 278 17.8
2019-Jun-16 11:31 095 17.2
2019-Jun-16 11:17 096 17.2
2019-Jun-16 11:02 096 17.2
2019-Jun-16 10:46 096 16.7
2019-Jun-16 10:32 096 16.7
2019-Jun-16 10:17 096 16.7
2019-Jun-16 10:01 096 16.7
2019-Jun-16 09:46 096 16.7
2019-Jun-16 09:31 096 16.7
2019-Jun-16 09:16 096 16.7
2019-Jun-16 09:01 096 16.7
2019-Jun-16 08:46 096 16.7
2019-Jun-16 08:31 096 16.7
2019-Jun-16 08:17 096 16.7
2019-Jun-16 08:02 096 16.7
2019-Jun-16 07:46 096 16.7
2019-Jun-16 07:31 096 17.2
2019-Jun-16 07:16 096 17.2
2019-Jun-16 07:01 096 17.2
2019-Jun-16 06:46 096 17.2
2019-Jun-16 06:31 096 17.2
2019-Jun-16 06:16 096 17.2
2019-Jun-16 06:01 096 17.2
2019-Jun-16 05:47 096 17.2
2019-Jun-16 05:31 096 17.8
2019-Jun-16 05:15 096 17.8
2019-Jun-16 05:00 096 17.8
2019-Jun-16 04:45 096 18.3
2019-Jun-16 04:30 096 18.3
2019-Jun-16 04:00 080 18.3
2019-Jun-16 03:45 168 18.3
2019-Jun-16 03:31 168 18.9
2019-Jun-16 03:15 168 18.9
2019-Jun-16 03:00 168 18.9
2019-Jun-16 02:45 207 19.4
2019-Jun-16 02:30 276 0 gusting 6 19.4
2019-Jun-16 02:15 181 0 gusting 4 19.4
2019-Jun-16 02:00 205 20.0
2019-Jun-16 01:45 207 20.0
2019-Jun-16 01:30 134 20.6
2019-Jun-16 01:00 188 20.6
2019-Jun-16 00:45 141 21.1
2019-Jun-16 00:30 191 0 gusting 6 21.1
2019-Jun-16 00:15 204 21.7
2019-Jun-16 00:00 143 21.7
2019-Jun-15 23:45 117 21.7
2019-Jun-15 23:30 136 0 gusting 6 22.2
2019-Jun-15 23:15 202 0 gusting 5 22.2
2019-Jun-15 23:00 104 22.8
2019-Jun-15 22:45 161 22.8
2019-Jun-15 22:32 231 0 gusting 6 23.3
2019-Jun-15 22:18 190 23.9
2019-Jun-15 22:02 103 0 gusting 5 23.9
2019-Jun-15 21:46 173 0 gusting 6 24.4
2019-Jun-15 21:31 163 1 gusting 8 25.0
2019-Jun-15 21:16 119 1 gusting 8 25.6
2019-Jun-15 21:02 120 0 gusting 6 26.1
2019-Jun-15 20:47 195 0 gusting 7 27.2
2019-Jun-15 20:32 205 0 gusting 10 27.8
2019-Jun-15 20:16 117 0 gusting 7 28.3
2019-Jun-15 20:02 349 27.8
2019-Jun-15 19:46 186 2 gusting 12 27.2
2019-Jun-15 19:31 063 0 gusting 10 27.2
2019-Jun-15 19:16 103 2 gusting 10 26.7
2019-Jun-15 19:01 204 3 gusting 9 27.2
2019-Jun-15 18:46 141 3 gusting 8 27.2
2019-Jun-15 18:31 160 1 gusting 9 27.2
2019-Jun-15 18:16 127 3 gusting 8 26.7
2019-Jun-15 18:01 232 27.2
2019-Jun-15 17:45 186 0 gusting 10 26.1
2019-Jun-15 17:31 094 2 gusting 8 25.6
2019-Jun-15 17:15 032 26.1
2019-Jun-15 17:00 042 0 gusting 8 26.1